Preview of NWS' New Version of Forecast
This preview is not operational and should not be used for support decisions.

Regional Weather Roundup (RWR)

Issued by National Weather Service (NWS)

                            
000
ASUS43 KMKX 190400
RWRWI 

WISCONSIN REGIONAL WEATHER ROUNDUP
NATIONAL WEATHER SERVICE MILWAUKEE/SULLIVAN WI
1100 PM CDT SUN AUG 18 2019

NOTE: "FAIR" INDICATES FEW OR NO CLOUDS BELOW 12,000 FEET WITH NO
SIGNIFICANT WEATHER AND/OR OBSTRUCTIONS TO VISIBILITY.

WIZ001-002-006>008-014>016-023>028-190500-
NORTHWEST WISCONSIN
  
CITY           SKY/WX    TMP DP  RH WIND       PRES   REMARKS
SUPERIOR ARPT  FAIR      55  48  77 CALM      29.87R                  
ASHLAND        FAIR      53  48  83 SW7       29.88R                  
HAYWARD        FAIR      51  48  89 CALM      29.92R                  
SIREN          FAIR      55  50  85 CALM      29.91R                  
CUMBERLAND     FAIR      54  50  87 CALM      29.92R                  
RICE LAKE      FAIR      54  39  58 CALM      29.92S HAZE             
CHETEK         FAIR      56  55  97 NW3       29.91R                  
LADYSMITH      FAIR      58  52  79 W5        29.92R                  
EAU CLAIRE     NOT AVBL                                               
MENOMONIE      FAIR      55  51  87 SW6       29.91R                  
NEW RICHMOND   FAIR      54  52  90 CALM      29.92R                  
OSCEOLA        FAIR      56  56 100 CALM      29.95R                  
$$
 
WIZ003>005-009-010-017-018-190500-
NORTH CENTRAL WISCONSIN
  
CITY           SKY/WX    TMP DP  RH WIND       PRES   REMARKS
MANITOWISH WTR FAIR      49  49 100 CALM      29.89R                  
ARBOR VITAE    FAIR      57  54  89 CALM      29.89R                  
WOODRUFF       FAIR      57  54  89 CALM      29.89R                  
RHINELANDER    FAIR      51  49  92 W5        29.89R                  
EAGLE RIVER    FAIR      52  52 100 CALM      29.88R                  
LAND O LAKES   FAIR      53  52  97 W3        29.90R                  
PHILLIPS       FAIR      55  54  97 CALM      29.90R                  
TOMAHAWK       FAIR      51  50  97 CALM      29.90R                  
MEDFORD        FAIR      56  51  82 W5        29.90R                  
MERRILL        FAIR      56  56  99 CALM      29.89R                  
$$
 
WIZ029-030-035-036-043>047-190500-
CENTRAL WISCONSIN
  
CITY           SKY/WX    TMP DP  RH WIND       PRES   REMARKS
WAUSAU         FAIR      61  54  77 NW7       29.88R                  
MOSINEE        FAIR      59  55  88 W5        29.91R                  
MARSHFIELD     FAIR      56  54  93 W3        29.90R                  
STEVENS POINT  FAIR      62  56  81 CALM      29.90R                  
WAUPACA        FAIR      65  60  83 CALM      29.90R                  
WAUTOMA        FAIR      61  60  97 W3        29.91R                  
WISC RAPIDS    FAIR      60  56  86 NW3       29.91R                  
CAMP DOUGLAS   NOT AVBL                                               
$$
 
WIZ011>013-019>022-031-037>040-048>050-190500-
NORTHEAST WISCONSIN
  
CITY           SKY/WX    TMP DP  RH WIND       PRES   REMARKS
ANTIGO         FAIR      54  53  97 SW5       29.90R                  
SHAWANO        FAIR      66  60  81 W5        29.87R                  
OCONTO         FAIR      63  60  93 CALM      29.85R                  
STURGEON BAY   FAIR      68  62  81 W3        29.86R                  
GREEN BAY      FAIR      66  62  87 W3        29.87R                  
MANITOWOC      FAIR      67  63  87 W5        29.88R                  
APPLETON       PTCLDY    64  57  77 W6        29.87R                  
CLINTONVILLE   FAIR      64  57  80 W5        29.88R                  
OSHKOSH        FAIR      67  62  84 CALM      29.88R                  
$$
 
WIZ032>034-041-042-053>061-190500-
SOUTHWEST WISCONSIN
  
CITY           SKY/WX    TMP DP  RH WIND       PRES   REMARKS
LA CROSSE      FAIR      65  59  81 CALM      29.91R                  
SPARTA         FAIR      56  55  98 CALM      29.92R                  
VIROQUA        FAIR      63  62  97 N3        29.93R                  
BOSCOBEL       FOG       64  63  96 CALM      29.91R VSB 1            
PRAIRIE DU CHI FAIR      65  64  93 CALM      29.91R                  
PLATTEVILLE    FAIR      67  67 100 S3        29.93R                  
$$

WIZ056-057-062-063-064-067-068-190500-
SOUTH CENTRAL WISCONSIN
  
CITY           SKY/WX    TMP DP  RH WIND       PRES   REMARKS
REEDSBURG      FAIR      63  63 100 CALM      29.91R                  
BARABOO/DELLS  MOCLDY    64  62  92 CALM      29.91R                  
LONE ROCK      NOT AVBL                                               
MINERAL POINT    N/A     68  68 100 MISG      29.92S                  
MADISON        FAIR      68  64  87 SW3       29.90R                  
MIDDLETON      FAIR      65  29  25 CALM      29.91R                  
WATERTOWN      FAIR      65  65 100 CALM      29.90R                  
MONROE         FAIR      68  65  91 SW6       29.92S                  
JANESVILLE     FAIR      68  68 100 CALM      29.92R                  
$$
 
WIZ051-052-058>065-066-070>072-190500-
SOUTHEAST WISCONSIN
  
CITY           SKY/WX    TMP DP  RH WIND       PRES   REMARKS
MILWAUKEE      FAIR      71  64  78 SW6       29.91R                  
WAUKESHA       FAIR      64  61  88 SW5       29.92R                  
MILWAUKEE/TIMM FAIR      64  59  82 SW3       29.91R                  
RACINE         FAIR      70  64  81 W5        29.92R                  
KENOSHA        FAIR      67  65  93 W5        29.92R                  
FOND DU LAC    MOCLDY    69  63  81 SW5       29.89R                  
SHEBOYGAN      FAIR      64  61  90 S3        29.89R                  
WEST BEND      FAIR      64  63  94 CALM      29.91R                  
JUNEAU         FAIR      64  63  95 CALM      29.92R                  
$$

LSZ147-162-190500-
LAKE SUPERIOR
  
STATION/POSITION TIME  TEMP    WIND        PRES    WAVE
                       AIR SEA DIR/SP/G            HT/PER
                 (UTC) (F)     (DEG/KT/KT) (MB)    (FT/S)
W MID LAKE BUOY  0250   65 63  260/ 10/ 10 1008.5R   1/ 3
DEVILS ISLAND    0300   68     260/ 15/ 18 1009.7R
SAXON HARBOR     0340   57     200/  7/  8 1010.8R
$$
 
LMZ867-665-643>646-190500-
LAKE MICHIGAN
  
STATION/POSITION TIME  TEMP    WIND        PRES    WAVE
                       AIR SEA DIR/SP/G            HT/PER
                 (UTC) (F)     (DEG/KT/KT) (MB)    (FT/S)
S GREEN BAY BUOY 0330   75 69  290/  6/  6 1010.9R
N MID LAKE BUOY  0340   69 69  330/ 16/ 19 1010.9R
NORTHPORT PIER   0340   69     310/  6/  8 1010.5R
KEWAUNEE LAKESHO 0324   69     270/  3/  6 1010.5
SHEBOYGAN LAKESH 0300   71     230/  7/  7 1011.5R
PORT WASHINGTON  0340   71     260/  5/  7 1013.2R
S MID LAKE BUOY  0340   74 73  270/ 10/ 12 1012.9R
KENOSHA   LAKESH 0300   74     230/  5/  7 1012.2
$$

TC  - TEMPERATURE IN CELSIUS
VSB - VISIBILITY IN STATUTE MILES
WCI - WIND CHILL INDEX
HX  - HEAT INDEX